This is the latest recevied weather packets stored in our database for station/object KI2K. If no packets are shown the sender has not sent any weather packets the latest 1 day(s).
| Time | Temp. | Humidity | Pressure | Rain* | Wind** | Luminosity | Snow |
|---|---|---|---|---|---|---|---|
| 1777998447 | 12.78° C | 99% | 1008.5 hPa | 0 mm | 0.45 m/s, 277° | 32 W/m² | - |
| 1777998144 | 13.33° C | 99% | 1008.3 hPa | 0 mm | 0 m/s | 39 W/m² | - |
| 1777997840 | 13.89° C | 99% | 1008.2 hPa | 0 mm | 0.89 m/s, 306° | 76 W/m² | - |
| 1777997538 | 13.89° C | 99% | 1008.1 hPa | 0 mm | 0.89 m/s, 252° | 76 W/m² | - |
| 1777997235 | 13.89° C | 99% | 1008.1 hPa | 0 mm | 1.34 m/s, 295° | 56 W/m² | - |
| 1777996933 | 13.89° C | 99% | 1008.1 hPa | 0 mm | 0.89 m/s, 288° | 64 W/m² | - |
| 1777996629 | 13.89° C | 99% | 1008.2 hPa | 0 mm | 0.45 m/s, 280° | 77 W/m² | - |
| 1777996326 | 13.89° C | 99% | 1008.1 hPa | 0 mm | 0.45 m/s, 283° | 89 W/m² | - |
| 1777996022 | 13.89° C | 99% | 1008.2 hPa | 0 mm | 0.45 m/s, 282° | 42 W/m² | - |
| 1777995718 | 14.44° C | 99% | 1008.3 hPa | 4.32 mm | 0.45 m/s, 285° | 36 W/m² | - |
| 1777995415 | 14.44° C | 99% | 1008.3 hPa | 4.32 mm | 0 m/s | 34 W/m² | - |
| 1777995112 | 14.44° C | 99% | 1008.1 hPa | 0 mm | 0 m/s | 58 W/m² | - |
| 1777994809 | 14.44° C | 98% | 1008.3 hPa | 1.78 mm | 0 m/s | 74 W/m² | - |
| 1777994504 | 14.44° C | 98% | 1008.1 hPa | 4.83 mm | 0 m/s | 77 W/m² | - |
| 1777994200 | 14.44° C | 98% | 1008 hPa | 3.05 mm | 0 m/s | 77 W/m² | - |
| 1777993898 | 14.44° C | 98% | 1007.8 hPa | 0 mm | 0 m/s | 45 W/m² | - |
| 1777993593 | 13.89° C | 98% | 1007.4 hPa | 0 mm | 0 m/s | 46 W/m² | - |
| 1777993291 | 13.89° C | 98% | 1007.6 hPa | 0 mm | 0 m/s | 47 W/m² | - |
| 1777992986 | 13.89° C | 98% | 1007.6 hPa | 0 mm | 0 m/s | 46 W/m² | - |
| 1777992685 | 14.44° C | 98% | 1007.8 hPa | 0 mm | 0 m/s | 46 W/m² | - |
| 1777992382 | 13.89° C | 98% | 1007.6 hPa | 0 mm | 0.45 m/s, 280° | 38 W/m² | - |
| 1777992080 | 13.89° C | 98% | 1007.9 hPa | 0 mm | 0 m/s | 52 W/m² | - |
| 1777991777 | 13.89° C | 98% | 1008.1 hPa | 0 mm | 0 m/s | 25 W/m² | - |
| 1777991474 | 14.44° C | 98% | 1008 hPa | 0 mm | 0.45 m/s, 282° | 27 W/m² | - |
| 1777991171 | 14.44° C | 98% | 1008 hPa | 0 mm | 0 m/s | 48 W/m² | - |
* Rain latest hour (hover to see other rain measurements)
** Current wind speed in m/s (hover to see current wind gust speed)